Regional Weather Roundup
Issued by NWS

Home | Current Version | Previous Version | Graphics & Text | Print | Product List | Glossary On
Versions: 1 2 3 4 5 6 7 8 9 10 11 12 13 14 15 16 17 18 19 20 21 22 23 24 25 26 27 28 29 30 31 32 33 34 35 36 37 38 39 40 41 42 43 44 45 46 47 48 49 50
000
ASUS43 KMKX 310500
RWRWI

WISCONSIN REGIONAL WEATHER ROUNDUP
NATIONAL WEATHER SERVICE MILWAUKEE/SULLIVAN WI
1100 PM CST FRI JAN 30 2015

NOTE: "FAIR" INDICATES FEW OR NO CLOUDS BELOW 12,000 FEET WITH NO
SIGNIFICANT WEATHER AND/OR OBSTRUCTIONS TO VISIBILITY.

WIZ001-002-006>008-014>016-023>028-310600-
NORTHWEST WISCONSIN

CITY           SKY/WX    TMP DP  RH WIND       PRES   REMARKS
SUPERIOR ARPT  CLOUDY    18   9  68 CALM      30.18F
ASHLAND        CLOUDY    19   8  62 SW6       30.18F WCI  11
HAYWARD        CLOUDY    18   8  65 S5        30.17F WCI  11
SIREN          CLOUDY    20  12  72 S6        30.17F WCI  12
CUMBERLAND     CLOUDY    16   9  73 SE7       30.17F WCI   6
RICE LAKE      CLOUDY    16   8  70 SE6       30.22F WCI   8
CHETEK         CLOUDY    16   8  71 E3        30.21F
LADYSMITH      CLOUDY    17   8  66 S6        30.22F WCI   9
EAU CLAIRE     CLOUDY    17   8  67 E3        30.21F
MENOMONIE      CLOUDY    17  10  74 E3        30.21F
NEW RICHMOND   CLOUDY    20  15  79 SE3       30.19F
OSCEOLA        CLOUDY    23  17  79 S6        30.21F WCI  16
$$

WIZ003>005-009-010-017-018-310600-
NORTH CENTRAL WISCONSIN

CITY           SKY/WX    TMP DP  RH WIND       PRES   REMARKS
MANITOWISH WTR CLOUDY    14   5  66 SW8       30.15F WCI   3
ARBOR VITAE    CLOUDY    17   8  69 S6        30.16F WCI   8
WOODRUFF       CLOUDY    17   8  69 S6        30.16F WCI   8
RHINELANDER    CLOUDY    14   5  67 SW7       30.17F WCI   4
EAGLE RIVER    MOCLDY    15   4  63 SW7       30.16S WCI   5
LAND O LAKES   CLOUDY    15   6  65 SW8       30.17S WCI   5
PHILLIPS       CLOUDY    15   6  67 S6        30.17F WCI   6
TOMAHAWK       CLOUDY    13   6  72 CALM      30.20F
MEDFORD        CLOUDY    15   6  68 SW6       30.20S WCI   6
MERRILL        CLOUDY    13   7  75 CALM      30.21F
$$

WIZ029-030-035-036-043>047-310600-
CENTRAL WISCONSIN

CITY           SKY/WX    TMP DP  RH WIND       PRES   REMARKS
WAUSAU         CLOUDY    15   5  64 SW7       30.21F WCI   5
MOSINEE        CLOUDY    16   9  73 S7        30.22F WCI   6
MARSHFIELD     MOCLDY    16   5  62 S5        30.21F WCI   9
STEVENS POINT  CLOUDY    13   6  73 S5        30.25F WCI   5
WAUPACA        FAIR      15   7  72 CALM      30.29F
WAUTOMA        NOT AVBL
WISC RAPIDS    CLOUDY    15   5  64 S5        30.25F WCI   8
CAMP DOUGLAS   NOT AVBL
$$

WIZ011>013-019>022-031-037>040-048>050-310600-
NORTHEAST WISCONSIN

CITY           SKY/WX    TMP DP  RH WIND       PRES   REMARKS
ANTIGO         CLOUDY    11   5  77 S5        30.19F WCI   3
SHAWANO        CLOUDY    19   8  61 CALM      30.28F
OCONTO         CLOUDY    19  10  70 CALM      30.29F
STURGEON BAY   CLOUDY    19   9  63 SW9       30.29F WCI   9
GREEN BAY      CLOUDY    19  12  74 S6        30.29F WCI  11
MANITOWOC      NOT AVBL
APPLETON       MOCLDY    18   7  62 SW5       30.29S WCI  11
CLINTONVILLE   CLOUDY    14   9  79 S3        30.27F
OSHKOSH        PTCLDY    17   8  67 CALM      30.29R
$$

WIZ032>034-041-042-053>061-310600-
SOUTHWEST WISCONSIN

CITY           SKY/WX    TMP DP  RH WIND       PRES   REMARKS
LA CROSSE      CLEAR     25  12  58 S10       30.25F WCI  15
SPARTA         CLOUDY    23  11  62 S3        30.25F
VIROQUA        CLOUDY    23  14  68 SW12      30.24F WCI  12
BOSCOBEL       CLOUDY    21  14  74 CALM      30.32R
PRAIRIE DU CHI CLOUDY    23  12  63 CALM      30.31S
PLATTEVILLE    CLOUDY    23  17  78 S8        30.30S WCI  14
$$

WIZ056-057-062-063-064-067-068-310600-
SOUTH CENTRAL WISCONSIN

CITY           SKY/WX    TMP DP  RH WIND       PRES   REMARKS
REEDSBURG      CLOUDY    21  12  69 S5        30.26F WCI  14
BARABOO/DELLS  CLOUDY    20  12  69 SW7       30.25F WCI  11
LONE ROCK      NOT AVBL
MINERAL POINT  CLOUDY    23  18  80 S5        30.28F WCI  17
MADISON        CLOUDY    20  12  71 S7        30.28F WCI  11
MIDDLETON      CLOUDY    21  12  67 SW5       30.30F WCI  15
WATERTOWN      CLEAR     16  11  81 S5        30.31F WCI   9
MONROE         CLOUDY    21  18  86 S9        30.30F WCI  11
JANESVILLE     MOCLDY    21  14  73 S5        30.33F WCI  15
$$

WIZ051-052-058>065-066-070>072-310600-
SOUTHEAST WISCONSIN

CITY           SKY/WX    TMP DP  RH WIND       PRES   REMARKS
MILWAUKEE      PTCLDY    20  10  65 SW8       30.33F WCI  10
WAUKESHA       CLEAR     18  10  73 SW6       30.33F WCI   9
MILWAUKEE/TIMM CLEAR     19  10  68 SW8       30.33F WCI   9
RACINE         PTCLDY    20  12  71 SW7       30.35F WCI  11
BURLINGTON     CLEAR     10   7  86 S3        30.34S
KENOSHA        PTCLDY    19  12  74 SW5       30.34F WCI  12
FOND DU LAC    PTCLDY    18   8  65 SW3       30.29F
SHEBOYGAN      MOCLDY    17  10  74 SW6       30.29F WCI   9
WEST BEND      PTCLDY    19  10  68 SW3       30.30F
JUNEAU         CLEAR     17  10  74 S12       30.29F WCI   4
$$

LSZ147-162-310600-
LAKE SUPERIOR

STATION/POSITION TIME  TEMP    WIND        PRES    WAVE
                       AIR SEA DIR/SP/G            HT/PER
                 (UTC) (F)     (DEG/KT/KT) (MB)    (FT/S)
DEVILS ISLAND    0400   20     230/ 14/ 18 1023.7F
PORT WING        0400   19     190/  4/  5 1022.7
SAXON HARBOR     0400   19     210/  4/  6 1023.4F
$$

LMZ867-665-643>646-310600-
LAKE MICHIGAN

STATION/POSITION TIME  TEMP    WIND        PRES    WAVE
                       AIR SEA DIR/SP/G            HT/PER
                 (UTC) (F)     (DEG/KT/KT) (MB)    (FT/S)
NORTHPORT PIER   0416   18     210/  3/  8 1025.7F
SISTER BAY       0413   19     200/  8/ 10   N/A
KEWAUNEE LAKESHO 0400   20     220/  3/  7 1025.7F
SHEBOYGAN LAKESH 0400   22     220/ 10/ 12 1028.1F
PORT WASHINGTON  0400   21     240/  4/  6 1028.1F
MILWAUKEE LAKESH 0400   24     220/ 10/ 11   N/A
KENOSHA   LAKESH 0400   23     220/  8/ 11 1027.8F
$$

TC  - TEMPERATURE IN CELSIUS
VSB - VISIBILITY IN STATUTE MILES
WCI - WIND CHILL INDEX
HX  - HEAT INDEX




USA.gov is the U.S. government's official web portal to all federal, state and local government web resources and services.